Flag for Venezuela Weather past 2 weeks in Valencia, Venezuela

Now
79 °F

Scattered clouds.


Feels Like: 82 °F
Forecast: 69 / 87 °F
Wind: 2 mph from South

Location: Valencia Airport

Current Time: Aug 31, 2015 at 9:28:44 AM

Latest Report: Aug 31, 2015 at 8:30 AM


Visibility: N/A

Pressure: 30.04 "Hg

Humidity: 89%

Dew point: 75 °F

Location of ValenciaLocation

Historic Weather in Valencia — Graph

°F

Valencia temperature yesterday

Maximum temperature yesterday: 86 °F (at 9:30 AM)
Minimum temperature yesterday: 75 °F (at 5:30 AM)
Average temperature yesterday: 78 °F

Past Weeks' High & Low Weather Summary

 TemperatureHumidityPressure
High95 °F (Aug 26, 1:30 PM)100% (Aug 26, 11:30 AM)30.09 "Hg (Aug 26, 11:30 AM)
Low73 °F (Aug 31, 1:30 AM)49% (Aug 16, 3:30 PM)29.83 "Hg (Aug 24, 4:30 PM)
Average83 °F76%29.96 "Hg
* Reported Aug 16 8:30 AM — Aug 31 7:30 AM, Valencia, Weather by CustomWeather, © 2015

Note: Actual official high and low records may vary slightly from our data, if they occured in-between our weather recording intervals... More about our weather records

Advertising

Valencia weather history for previous 24 hours

 ConditionsComfort  
Time TempWeatherWind HumidityBarometerVisibility
7:30 AM
Mon, Aug 31
75 °FScattered clouds.2 mph94%30.04 "HgN/A
6:30 AM73 °FScattered clouds.No wind89%30.01 "HgN/A
4:30 AM73 °FPassing clouds.2 mph94%29.98 "HgN/A
1:30 AM73 °FPassing clouds.2 mph94%30.01 "HgN/A
10:30 PM
Sun, Aug 30
75 °FPassing clouds.1 mph89%30.04 "HgN/A
9:30 PM75 °FPassing clouds.No wind89%30.04 "HgN/A
8:30 PM75 °FPassing clouds.No wind94%30.01 "HgN/A
7:30 PM77 °FPassing clouds.2 mph83%29.98 "HgN/A
6:30 PM77 °FPassing clouds.1 mph83%29.95 "HgN/A
5:30 PM79 °FScattered clouds.5 mph74%29.95 "HgN/A
4:30 PM81 °FPartly sunny.5 mph70%29.95 "HgN/A
3:30 PM79 °FPartly sunny.6 mph74%29.98 "HgN/A
2:30 PM77 °FPartly sunny.3 mph83%30.01 "HgN/A
1:30 PM77 °FOvercast.2 mph89%30.04 "HgN/A
12:30 PM75 °FPassing clouds.3 mph94%30.07 "HgN/A
11:30 AM75 °FPassing clouds.5 mph89%30.09 "Hg6 mi
10:30 AM79 °FHeavy rain. Passing clouds.8 mph84%30.04 "Hg1 mi
9:30 AM86 °FScattered clouds.1 mph62%30.04 "HgN/A
Weather by CustomWeather, © 2015

See weather overviewHow to use our weather pages